Tracking 27097 objects as of 29-Mar-2023
HD Live streaming from Space Station
objects crossing your sky now

STARLINK-5318

Track STARLINK-5318 now!
10-day predictions
STARLINK-5318 is classified as:


NORAD ID: 55304
Int'l Code: 2023-010AM
Perigee: 363.9 km
Apogee: 368.6 km
Inclination: 70.0 °
Period: 91.7 minutes
Semi major axis: 6737 km
RCS: Unknown
Launch date: January 19, 2023
Source: United States (US)
Launch site: AIR FORCE WESTERN TEST RANGE (AFWTR)
Your satellite tracking list
Your tracking list is empty




NASA's NSSDC Master Catalog

Two Line Element Set (TLE):
1 55304U 23010AM  23087.92750726 -.00000892  00000-0 -56527-5 0  9992
2 55304  70.0001 236.6102 0003530 274.2425  85.8367 15.69921609 11247
Source of the keplerian elements: AFSPC